Location: Erp
(42.9417°N, 1.2009°E)
Time: 01:27:44
(UTC+00:00)

Tiangong - Visible Passes

Search period start: 13 March 2026 00:00
Search period end: 23 March 2026 00:00
Orbit: 381 x 390 km, 41.5° (Epoch: 12 March)

Date Brightness Start Highest point End Pass type
(mag) Time Alt. Az. Time Alt. Az. Time Alt. Az.
13 Mar -0.1 04:21:56 20° SSE 04:22:01 20° SSE 04:24:27 10° ESE visible
14 Mar -1.3 04:57:30 23° SW 04:59:04 42° SSE 05:02:07 10° E visible
15 Mar 0.0 04:00:44 23° ESE 04:00:44 23° ESE 04:02:28 10° E visible
15 Mar -1.9 05:33:04 10° WSW 05:36:14 66° S 05:39:24 10° E visible
16 Mar -1.9 04:36:06 47° SSW 04:36:39 56° S 04:39:47 10° E visible
17 Mar 0.7 03:39:12 17° E 03:39:12 17° E 03:40:06 10° E visible
17 Mar -2.0 05:11:24 17° W 05:13:44 68° S 05:16:55 10° E visible
18 Mar -1.7 04:14:26 58° SE 04:14:26 58° SE 04:17:13 10° E visible
19 Mar 1.4 03:17:27 10° E 03:17:27 10° E 03:17:27 10° E visible
19 Mar -2.0 04:49:39 29° WSW 04:51:03 61° S 04:54:11 10° ESE visible
20 Mar -0.4 03:52:38 30° ESE 03:52:38 30° ESE 03:54:25 10° E visible
20 Mar -1.3 05:24:58 10° W 05:27:55 36° SSW 05:30:52 10° SE visible
21 Mar -1.9 04:27:51 47° SSW 04:28:08 49° SSW 04:31:13 10° ESE visible
22 Mar 0.8 03:30:53 14° ESE 03:30:53 14° ESE 03:31:25 10° ESE visible
22 Mar -0.8 05:03:05 16° WSW 05:04:48 24° SSW 05:07:27 10° SSE visible
